Flag for Slovenia Weather past 2 weeks in Ljubljana, Slovenia

Now
56 °F

Cool.


Feels Like: 56 °F
Forecast: 49 / 66 °F
Wind: 1 mph from Northeast

Location: Ljubljana / Bezigrad

Current Time: Oct 2, 2014 at 3:07:08 AM

Latest Report: Oct 2, 2014 at 2:00 AM


Visibility: N/A

Pressure: 30.28 "Hg

Humidity: 96%

Dew point: 55 °F

Location of LjubljanaLocation

Historic Weather in Ljubljana — Graph

°F

Ljubljana temperature yesterday

Maximum temperature yesterday: 70 °F (at 3:00 PM)
Minimum temperature yesterday: 56 °F (at 7:00 AM)
Average temperature yesterday: 60 °F

Past Weeks' High & Low Weather Summary

 TemperatureHumidityPressure
High80 °F (Sep 21, 3:00 PM)100% (Sep 17, 9:00 AM)30.42 "Hg (Sep 17, 9:00 AM)
Low46 °F (Sep 26, 7:00 AM)39% (Sep 23, 3:00 PM)29.81 "Hg (Sep 22, 3:00 PM)
Average60 °F82%30.14 "Hg
* Reported Sep 17 1:00 AM — Oct 2 1:00 AM, Ljubljana, Weather by CustomWeather, © 2014

Note: Actual official high and low records may vary slightly from our data, if they occured in-between our weather recording intervals... More about our weather records

Advertising

Ljubljana weather history for previous 24 hours

 ConditionsComfort  
Time TempWeatherWind HumidityBarometerVisibility
1:00 AM
Oct 2
57 °FCool.No wind94%30.28 "HgN/A
12:00 AM58 °FCool.1 mph94%30.28 "HgN/A
11:00 PM
Oct 1
58 °FCool.1 mph92%30.29 "HgN/A
10:00 PM59 °FLow clouds.1 mph89%30.28 "Hg7 mi
9:00 PM59 °FLow clouds.2 mph90%30.27 "Hg7 mi
8:00 PM59 °FLow clouds.2 mph90%30.27 "Hg7 mi
7:00 PM60 °FLight rain. Overcast.3 mph89%30.25 "Hg7 mi
6:00 PM67 °FLight rain. Overcast.2 mph70%30.22 "Hg9 mi
5:00 PM68 °FOvercast.2 mph71%30.20 "Hg9 mi
4:00 PM69 °FOvercast.1 mph71%30.20 "Hg12 mi
3:00 PM70 °FPartly sunny.No wind67%30.21 "Hg11 mi
2:00 PM67 °FOvercast.1 mph74%30.23 "Hg7 mi
1:00 PM64 °FOvercast.1 mph82%30.26 "Hg7 mi
12:00 PM62 °FOvercast.1 mph85%30.27 "Hg7 mi
11:00 AM60 °FLight rain. Overcast.No wind91%30.28 "Hg6 mi
10:00 AM58 °FLight rain. Overcast.No wind94%30.28 "Hg6 mi
9:00 AM57 °FOvercast.No wind94%30.27 "Hg6 mi
8:00 AM57 °FLight rain. Overcast.No wind94%30.27 "Hg6 mi
7:00 AM56 °FOvercast.No wind95%30.26 "Hg6 mi
6:00 AM56 °FOvercast.1 mph95%30.25 "Hg6 mi
5:00 AM56 °FCool.No wind94%30.26 "HgN/A
4:00 AM57 °FCool.No wind93%30.27 "HgN/A
3:00 AM57 °FCool.No wind93%30.27 "HgN/A
Weather by CustomWeather, © 2014

See weather overviewHow to use our weather pages